Date,TemperatureHighF,TemperatureAvgF,TemperatureLowF,DewpointHighF,DewpointAvgF,DewpointLowF,HumidityHigh,HumidityAvg,HumidityLow,PressureMaxIn,PressureMinIn,WindSpeedMaxMPH,WindSpeedAvgMPH,GustSpeedMaxMPH,PrecipitationSumIn
2013-1-1,36.9,33.5,27.3,34.4,31.0,24.2,91,90,88,30.27,30.06,6,0,6,2.81
2013-1-2,37.9,27.8,19.9,28.7,21.2,14.6,88,77,58,30.30,30.21,20,0,20,0.00
2013-1-3,47.1,29.0,16.5,33.3,21.0,12.4,86,73,55,30.46,30.28,6,0,6,0.00
2013-1-4,49.8,32.8,19.0,32.9,21.7,14.6,86,66,38,30.49,30.35,7,0,7,0.00
2013-1-5,42.8,34.6,23.9,32.8,26.6,16.9,82,73,64,30.36,30.21,13,0,13,0.00
2013-1-6,50.7,33.9,21.6,30.5,23.3,14.7,87,68,40,30.39,30.26,9,0,9,0.00
2013-1-7,55.4,35.4,18.7,35.6,22.3,13.7,84,62,37,30.37,30.15,13,0,13,0.00
2013-1-8,61.3,42.8,25.9,42.9,32.8,18.0,87,69,47,30.25,30.08,12,0,12,0.00
2013-1-9,57.0,51.2,46.2,45.3,42.9,39.6,91,74,62,30.36,30.24,12,1,12,0.00
2013-1-10,61.2,51.3,46.6,55.2,46.6,42.2,90,84,74,30.24,29.86,17,1,17,0.00
2013-1-11,67.1,55.6,45.3,46.9,44.3,41.1,87,68,46,29.95,29.80,17,2,17,0.00
2013-1-12,58.8,45.4,31.3,50.4,38.0,27.6,87,76,51,30.00,29.79,16,2,16,0.00
2013-1-13,32.0,25.0,16.7,28.3,18.9,11.9,87,78,63,30.37,29.97,14,2,14,0.00
2013-1-14,37.0,23.5,14.5,18.6,13.9,10.1,84,68,45,30.47,30.33,11,0,11,0.00
2013-1-15,42.8,26.5,18.0,21.8,16.4,10.5,81,67,47,30.34,30.16,10,1,10,0.00
2013-1-16,46.2,28.5,13.8,26.2,16.3,9.1,83,63,37,30.24,30.13,7,0,7,0.00
2013-1-17,51.8,33.7,19.9,33.7,22.6,14.0,83,65,45,30.51,30.22,13,1,13,0.00
2013-1-18,58.3,39.2,19.8,35.5,24.8,14.8,85,59,34,30.53,30.25,17,1,17,0.00
2013-1-19,64.6,48.7,32.5,38.5,30.9,24.0,71,51,36,30.25,30.12,14,1,14,0.00
2013-1-20,65.8,45.3,29.5,37.1,29.9,18.5,83,58,33,30.29,30.15,12,0,12,0.00
2013-1-21,45.0,32.0,22.6,19.8,15.8,12.2,67,53,34,30.41,30.27,16,1,16,0.00
2013-1-22,50.0,32.1,19.6,27.5,18.9,12.4,75,59,40,30.34,30.24,15,0,15,0.00
2013-1-23,64.2,42.2,23.5,44.8,31.4,16.0,83,67,47,30.29,30.18,8,0,8,0.00
2013-1-24,45.9,41.5,33.8,38.4,28.0,22.5,82,59,46,30.33,30.14,13,1,13,0.00
2013-1-25,53.8,39.7,32.7,40.0,31.8,27.6,88,75,52,30.28,30.12,7,0,7,0.00
2013-1-26,64.0,45.9,30.6,35.1,26.5,20.9,83,52,24,30.28,30.16,17,0,17,0.00
2013-1-27,59.5,53.6,46.6,54.2,46.8,32.6,85,78,57,30.17,29.98,20,3,20,0.00
2013-1-28,72.5,66.5,59.5,61.3,58.9,54.2,84,77,67,30.05,29.88,20,4,20,0.00
2013-1-29,67.8,65.3,63.7,61.2,59.4,57.9,89,81,76,29.88,29.50,22,4,22,0.08
2013-4-14,80.2,66.0,63.1,51.3,50.5,48.4,64,58,36,29.74,29.63,5,0,5,0.00
2013-4-15,90.7,71.2,57.6,65.1,58.2,49.6,80,65,42,29.87,29.74,11,1,12,0.00
2013-4-16,97.5,68.2,52.9,68.4,57.0,48.4,86,70,38,30.02,29.85,10,0,13,0.00
2013-4-17,89.8,73.6,67.6,68.8,64.1,60.2,82,73,48,30.00,29.71,13,2,16,0.00
2013-4-18,74.1,50.6,38.1,64.3,42.9,28.6,99,75,67,30.05,29.62,15,1,15,0.00
2013-4-19,57.4,43.9,32.5,30.6,27.9,25.0,74,55,33,30.15,30.04,10,0,10,0.00
2013-4-20,71.4,52.1,34.0,39.9,34.5,28.6,83,55,29,30.25,30.13,8,0,8,0.00
2013-4-21,71.8,57.8,45.3,42.4,38.1,35.1,74,50,31,30.31,30.17,10,0,12,0.00
2013-4-22,75.0,61.8,48.4,45.9,40.4,35.1,62,46,33,30.24,29.95,14,1,14,0.00
2013-4-23,64.6,52.5,36.3,52.1,43.1,32.9,88,72,54,30.16,29.87,8,0,11,0.00
2013-4-24,58.5,43.6,34.0,34.7,30.8,25.5,88,64,36,30.35,30.15,8,0,8,0.00
2013-4-25,74.8,51.3,28.6,40.0,31.7,23.8,83,53,24,30.41,30.25,10,0,13,0.00
2013-4-26,58.8,52.4,48.2,47.7,43.4,34.5,89,73,40,30.34,30.15,9,0,9,0.00
2013-4-27,50.9,26.6,20.5,47.7,25.7,20.2,99,97,89,30.16,30.07,0,0,0,0.00
2013-4-28,78.6,66.4,20.5,56.0,51.1,20.2,99,60,40,30.09,29.93,12,0,12,0.00
2013-4-29,85.8,71.4,49.3,59.9,53.5,44.9,87,56,39,29.97,29.84,10,1,13,0.00
2013-4-30,84.4,71.6,56.1,56.8,51.3,45.0,77,51,32,29.94,29.87,16,1,16,0.00
2013-5-1,87.4,69.5,55.4,61.9,55.2,46.2,82,62,40,30.13,29.93,14,1,14,0.00
2013-5-2,59.5,48.6,33.4,53.5,43.8,30.5,89,84,75,30.30,30.09,9,0,9,0.00
2013-5-3,47.5,39.2,31.8,37.6,31.1,29.0,90,74,53,30.28,29.99,10,0,10,0.00
2013-5-4,44.4,39.3,34.7,36.8,33.9,31.1,89,81,71,30.05,29.90,4,0,5,0.00
2013-5-5,61.5,44.6,34.2,46.2,37.4,30.8,89,77,54,30.13,30.03,4,0,4,0.00
2013-5-6,62.8,62.1,61.9,51.7,51.4,51.0,69,68,67,30.08,30.08,0,0,0,0.00
2013-5-7,77.9,61.1,41.7,56.0,47.5,38.7,89,64,41,30.14,30.03,5,0,10,0.00
2013-5-8,81.9,67.0,51.6,58.4,52.9,46.2,84,63,41,30.11,29.97,8,0,11,0.00
2013-5-9,79.0,64.5,57.2,60.4,56.0,53.1,90,75,52,30.06,29.93,9,0,9,0.00
2013-5-10,94.3,64.2,-18.6,94.0,60.1,-32.3,99,86,48,30.03,30.02,0,0,0,0.00
2013-5-11,75.4,63.7,48.0,55.2,43.2,35.6,63,48,37,30.26,30.14,10,0,20,0.00
2013-5-12,70.3,54.3,37.9,45.0,38.5,32.1,83,58,34,30.32,30.18,3,0,4,0.00
2013-5-13,82.4,64.6,45.9,55.6,48.3,40.1,82,59,37,30.22,30.09,8,1,12,0.00
2013-5-14,89.2,74.4,63.0,59.4,52.9,47.8,61,48,32,30.13,30.02,18,1,18,0.00
2013-5-15,74.8,68.0,64.0,63.7,57.9,49.2,88,71,54,30.07,29.93,11,1,11,0.00
2013-5-16,69.4,65.0,61.5,61.9,59.1,56.1,86,81,75,29.95,29.88,6,0,6,0.00
2013-5-17,84.6,69.8,20.5,66.1,60.0,20.3,99,73,50,29.99,29.92,17,1,19,0.00
2013-5-18,85.8,74.7,64.8,73.4,66.5,60.5,90,76,63,29.99,29.87,21,2,21,0.00
2013-5-19,89.4,79.1,72.7,68.3,64.9,61.1,83,64,43,29.92,29.74,19,2,19,0.00
2013-5-20,78.6,72.2,61.3,68.0,63.6,55.5,89,75,67,29.89,29.76,12,1,13,0.00
2013-5-21,94.3,60.1,18.1,94.0,56.1,17.9,99,87,78,29.97,29.70,6,0,6,0.00
2013-5-22,76.8,61.6,52.2,60.9,54.4,49.3,90,79,54,29.95,29.86,19,1,20,0.00
2013-5-23,69.6,66.2,62.8,59.9,58.0,55.9,78,75,71,30.18,30.10,0,0,0,0.00
2013-5-24,81.1,67.2,56.1,63.6,56.8,51.3,85,70,55,30.31,30.20,8,0,8,0.00
2013-5-25,82.4,70.4,58.8,64.3,56.9,49.2,74,62,54,30.27,30.11,8,0,8,0.00
2013-5-26,82.8,72.9,66.7,66.5,61.0,58.2,81,66,54,30.17,30.05,6,1,6,0.00
2013-5-27,85.5,75.7,68.7,67.2,64.2,58.6,82,68,50,30.07,29.89,14,1,14,0.00
2013-5-28,84.4,76.1,71.2,65.4,63.2,60.9,78,65,51,29.95,29.85,15,2,20,0.00
2013-5-29,80.6,74.9,70.0,65.9,63.4,61.6,75,68,58,29.96,29.84,11,1,13,0.00
2013-5-30,77.5,68.5,60.6,66.6,61.5,56.4,89,79,65,29.91,29.81,13,1,16,0.00
2013-5-31,84.9,80.9,77.2,71.2,69.5,68.4,76,69,62,29.87,29.71,9,1,16,0.00
2013-6-1,77.5,68.9,61.3,69.7,61.5,54.8,91,78,66,30.05,29.78,13,0,14,0.00
2013-6-2,66.2,58.6,52.3,57.7,52.8,48.8,89,81,69,30.11,30.04,0,0,0,0.00
2013-6-3,80.4,60.3,48.0,60.7,52.1,45.0,90,77,47,30.11,29.97,19,2,24,0.00
2013-6-4,79.0,68.5,62.1,65.8,59.1,53.8,82,72,62,30.06,29.96,18,1,20,0.00
2013-6-5,77.9,65.4,61.5,66.8,59.8,56.6,90,82,68,30.10,29.93,18,1,18,0.00
2013-6-7,76.3,74.7,73.2,55.3,54.6,53.6,52,50,46,30.01,29.98,0,0,0,0.00
2013-6-8,82.9,75.9,66.7,60.6,58.1,55.8,69,55,47,30.01,29.91,12,0,12,0.00
2013-6-9,70.3,68.8,67.1,62.5,58.9,56.2,78,71,66,29.98,29.91,6,0,6,0.00
2013-6-10,75.4,75.0,74.8,64.4,64.0,63.7,70,69,68,29.99,29.98,0,0,0,0.00
2013-6-11,93.4,81.8,73.0,69.3,66.8,64.3,75,62,45,30.08,29.98,20,3,20,0.00
2013-6-12,90.5,81.6,73.9,71.0,68.6,66.9,80,66,47,30.08,29.97,17,2,20,0.00
2013-6-13,90.3,80.2,70.7,74.2,69.1,64.0,85,70,56,30.09,30.00,22,4,22,0.00
2013-6-14,91.8,79.2,67.8,74.3,68.1,62.1,83,70,55,30.10,29.99,22,3,22,0.00
2013-6-15,91.0,78.1,68.7,70.9,66.2,62.1,87,68,49,30.12,30.02,22,1,22,0.00
2013-6-16,87.6,73.6,67.8,72.6,66.4,62.5,89,79,58,30.08,29.99,22,3,22,0.00
2013-6-17,75.6,67.4,65.8,68.3,63.2,61.0,90,87,76,30.03,29.95,0,0,11,0.00
2013-6-18,82.4,77.5,66.0,67.8,63.5,59.3,79,63,54,30.09,30.02,21,2,21,0.00
2013-6-19,88.9,73.0,61.3,69.2,62.7,57.1,89,72,44,30.12,30.03,21,2,22,0.00
2013-6-20,89.4,75.9,64.6,70.6,65.7,59.8,86,72,53,30.15,30.05,17,1,18,0.00
2013-6-21,91.9,82.3,74.5,73.2,69.9,67.7,81,67,52,30.16,30.07,19,3,19,0.00
2013-6-22,90.7,83.3,74.8,72.1,68.9,66.1,79,63,48,30.14,30.01,19,3,19,0.00
2013-6-23,90.3,81.5,74.8,72.0,68.5,65.2,81,66,49,30.08,29.99,20,3,20,0.00
2013-6-24,89.4,81.0,74.1,71.1,68.0,65.3,78,65,51,30.13,30.01,19,2,19,0.00
2013-6-25,88.0,80.8,75.4,69.6,68.0,66.6,78,66,52,30.05,29.92,17,2,17,0.00
2013-6-26,93.2,83.0,76.1,73.7,70.5,67.5,81,67,52,30.01,29.91,19,4,22,0.00
2013-6-27,99.0,84.1,70.2,74.5,71.1,65.9,88,67,45,30.05,29.94,22,6,24,0.00
2013-6-28,90.5,81.9,74.5,73.3,68.0,60.5,81,64,44,30.01,29.89,21,3,24,0.00
2013-6-29,85.8,74.3,60.6,62.7,56.1,52.2,84,56,35,29.97,29.87,17,1,17,0.00
2013-6-30,77.4,69.3,59.9,59.9,56.4,50.6,78,64,52,30.02,29.91,6,0,6,0.00
2013-7-1,79.7,69.1,55.9,61.2,54.0,48.8,85,61,39,30.10,30.02,8,0,8,0.00
2013-7-2,80.4,67.1,51.4,58.3,51.1,46.0,84,59,37,30.15,30.08,4,0,6,0.00
2013-7-3,87.3,69.2,51.8,58.9,51.4,45.7,82,57,30,30.18,30.06,19,1,19,0.00
2013-7-4,88.0,72.4,57.0,60.4,55.0,49.1,78,57,35,30.13,30.02,20,1,20,0.00
2013-7-5,90.5,75.0,58.8,62.5,56.6,51.3,80,55,35,30.10,29.99,21,2,21,0.00
2013-7-6,93.6,75.2,61.9,64.3,58.4,52.8,77,58,35,30.09,30.00,19,1,23,0.00
2013-7-7,93.9,79.4,66.4,67.7,62.9,57.5,80,59,39,30.12,30.05,19,3,25,0.00
2013-7-8,93.4,80.3,66.4,70.5,65.3,59.7,83,62,43,30.17,30.09,20,4,22,0.00
2013-7-9,93.7,83.1,72.5,71.5,67.6,64.1,79,61,45,30.17,30.04,22,4,23,0.00
2013-7-10,100.0,85.0,74.5,72.5,67.3,63.7,71,57,40,30.09,29.96,22,5,25,0.00
2013-7-11,95.5,82.1,68.7,73.4,66.4,61.8,85,61,37,30.08,29.97,23,5,23,0.00
2013-7-12,97.0,81.2,68.2,72.7,64.9,58.8,73,59,42,30.12,30.02,21,4,24,0.00
2013-7-13,91.0,76.9,62.8,63.7,59.1,54.7,76,56,40,30.12,30.02,21,3,21,0.00
2013-7-14,90.5,77.4,63.5,62.1,57.5,54.1,73,52,33,30.13,30.03,22,2,22,0.00
2013-7-15,91.2,78.7,69.4,67.6,63.8,57.7,76,61,45,30.25,30.10,18,1,18,0.00
2013-7-16,88.9,73.9,67.5,72.9,67.0,62.8,88,80,53,30.33,30.23,17,0,17,0.00
2013-7-17,94.3,83.8,69.6,73.4,67.4,63.1,89,60,45,30.37,30.25,22,6,26,0.00
2013-7-18,85.8,72.9,67.3,71.3,65.4,62.3,86,78,60,30.28,30.24,16,1,16,0.00
2013-8-5,90.0,84.9,75.2,76.8,73.5,68.0,79,69,62,30.09,29.93,17,4,17,0.00
2013-8-6,95.4,84.2,74.8,75.6,72.5,68.7,82,69,51,29.98,29.89,20,4,20,0.00
2013-8-7,97.0,83.3,74.3,78.3,72.8,67.8,84,71,50,30.01,29.90,19,2,19,0.00
2013-8-8,77.7,64.4,18.1,73.2,61.0,17.9,99,89,86,30.01,29.93,0,0,0,0.00
2013-8-11,86.2,84.8,84.0,72.6,71.7,71.4,66,65,64,30.10,30.09,22,18,22,0.00
2013-8-12,84.0,77.6,71.4,74.6,70.3,66.5,87,78,70,30.13,30.03,18,2,19,0.00
2013-8-13,78.8,74.6,70.9,71.2,68.4,66.7,88,81,76,30.09,30.05,0,0,0,0.00
2013-8-14,80.4,72.2,62.8,63.1,59.1,56.1,79,64,53,30.20,30.12,20,2,24,0.00
2013-8-15,80.8,65.7,55.6,60.7,55.6,51.9,88,72,47,30.19,30.08,18,1,20,0.00
2013-8-16,77.9,66.2,60.4,61.7,57.0,54.7,83,73,57,30.18,30.09,14,0,14,0.00
2013-8-17,78.6,66.2,55.0,62.6,57.2,50.9,88,74,56,30.21,30.11,14,0,14,0.00
2013-8-18,85.1,70.0,58.8,66.1,60.2,55.0,88,73,50,30.20,30.11,22,2,23,0.00
2013-8-19,89.2,72.3,60.6,67.8,61.9,56.4,89,72,47,30.18,30.07,23,2,23,0.00
2013-8-20,93.0,75.4,60.8,67.8,61.8,56.6,89,65,41,30.16,30.08,22,2,22,0.00
2013-8-21,93.7,75.7,62.2,68.9,63.3,57.5,87,67,43,30.19,30.11,21,2,22,0.00
2013-8-22,91.2,76.5,64.2,70.8,65.0,59.3,86,69,47,30.19,30.09,18,2,23,0.00
2013-8-23,93.4,73.9,66.4,72.7,65.9,61.9,88,78,46,30.16,30.10,21,1,21,0.00
2013-8-24,95.7,80.2,68.4,74.2,68.1,63.7,87,68,42,30.22,30.12,19,3,19,0.00
2013-8-25,94.8,80.3,69.3,73.6,68.1,63.9,85,68,45,30.27,30.19,19,5,19,0.00
2013-8-26,91.8,83.4,70.0,72.7,67.2,62.4,84,59,44,30.28,30.16,21,5,23,0.00
2013-8-27,94.8,77.2,63.3,69.2,63.8,58.9,87,66,40,30.20,30.10,21,3,23,0.00
2013-9-7,115.5,85.4,70.0,69.5,63.0,59.5,70,50,23,30.12,30.00,22,4,22,0.00
2013-9-8,115.3,78.6,64.6,71.2,62.3,58.9,83,61,25,30.06,29.96,21,3,23,0.00
2013-9-9,108.7,81.9,64.6,68.6,61.7,58.5,82,55,24,30.09,30.00,22,5,24,0.00
2013-9-10,108.9,80.5,62.4,66.1,60.3,56.5,82,55,22,30.21,30.06,22,4,24,0.00
2013-9-11,103.6,79.6,66.0,71.5,64.6,59.4,92,63,34,30.22,30.11,21,3,23,0.00
2013-9-12,100.9,51.6,-18.6,94.3,44.8,-30.1,99,80,51,30.18,30.06,20,3,20,0.00
2013-9-13,100.2,76.3,61.9,89.2,68.6,59.0,91,79,46,30.14,30.04,22,3,22,0.00
2013-9-14,99.7,71.8,53.2,88.1,66.4,51.2,94,85,53,30.13,30.03,21,3,21,0.00
2013-9-15,98.2,78.1,58.6,72.6,64.5,56.6,93,66,36,30.13,30.05,20,4,22,0.00
2013-9-16,95.0,73.3,66.9,76.7,66.0,61.4,89,79,53,30.25,30.10,17,0,22,0.00
2013-9-17,99.3,76.4,63.7,70.9,64.9,60.8,92,70,39,30.19,30.07,20,1,20,0.00
2013-9-18,96.6,79.4,70.9,70.6,65.2,62.0,78,63,42,30.11,30.00,18,1,23,0.00
2013-9-19,101.8,80.1,71.2,71.4,65.7,60.9,74,63,37,30.08,29.95,19,2,19,0.00
2013-9-20,74.8,70.1,66.0,66.0,64.6,63.1,92,83,70,30.06,30.01,5,0,5,0.00
2013-9-21,84.4,73.4,63.7,75.2,63.4,57.0,92,73,48,30.01,29.97,16,1,16,0.00
2013-9-22,94.8,93.0,87.6,94.5,85.9,79.1,99,80,74,30.02,29.94,17,10,20,0.00
2013-9-23,98.8,79.1,-16.4,95.0,64.9,-16.6,99,75,20,29.97,29.87,9,0,9,0.00
2013-9-24,94.3,69.4,-16.4,94.0,66.1,-47.0,99,91,18,29.96,29.91,15,1,17,0.00
2013-9-25,95.5,40.7,-16.4,94.0,30.9,-55.0,99,75,11,29.94,29.88,21,2,23,0.00
2013-9-26,100.0,85.0,72.5,94.0,81.6,70.6,95,90,82,29.99,29.95,24,7,25,0.00
2013-9-27,94.8,83.0,-16.4,88.4,78.1,-47.0,95,86,18,30.07,29.98,21,6,21,0.00
2013-9-28,84.9,72.3,67.1,78.8,69.0,65.4,95,90,81,30.07,29.97,7,0,8,0.00
2013-9-29,91.0,73.2,59.4,85.6,70.3,57.9,95,91,75,30.05,29.98,20,3,21,0.00
2013-9-30,89.4,72.3,57.0,84.7,69.9,55.9,96,92,83,30.00,29.92,20,2,20,0.00
2013-10-1,93.2,80.3,70.0,87.9,77.5,68.5,95,91,84,30.05,29.99,20,3,22,0.00
2013-10-2,88.5,76.7,67.8,84.2,74.6,67.5,99,93,85,30.10,29.98,18,1,18,0.00
2013-10-3,89.1,75.9,67.6,84.1,73.3,66.4,96,92,82,30.02,29.92,12,1,13,0.00
2013-10-4,89.2,75.2,70.0,83.8,72.7,68.5,95,92,80,30.00,29.92,19,1,19,0.00
2013-10-5,72.5,62.2,49.6,72.0,60.7,48.2,99,95,94,30.12,29.94,4,0,4,0.00
2013-10-6,72.5,59.0,46.0,69.6,57.1,44.7,99,93,89,30.09,30.02,2,0,3,0.00
2013-10-7,79.0,54.3,39.7,73.2,51.3,38.4,96,90,56,30.20,30.06,6,0,13,0.00
2013-10-8,84.7,59.5,43.5,80.4,57.5,42.2,99,93,84,30.20,30.10,8,0,11,0.00
2013-10-9,87.8,63.0,43.9,83.6,60.7,42.5,99,92,81,30.18,30.08,20,1,22,0.00
2013-10-10,88.9,61.6,44.4,80.0,54.5,43.1,96,80,46,30.16,29.98,19,0,19,0.00
2013-10-11,81.7,67.5,56.1,64.8,59.4,51.4,88,76,55,30.01,29.92,5,0,6,0.00
2013-10-12,80.8,67.8,61.5,70.5,61.7,57.7,92,81,62,30.21,29.96,3,0,7,0.00
2013-10-13,87.1,65.3,57.7,61.4,53.5,49.2,87,67,42,30.36,30.21,6,0,6,0.00
2013-10-14,68.2,60.2,55.2,60.0,54.0,48.1,94,80,71,30.29,30.05,4,0,4,0.00
2013-10-15,63.7,62.7,53.4,63.4,62.5,60.7,99,99,99,30.00,29.95,0,0,1,0.00
2013-10-16,71.8,53.1,41.9,67.3,50.3,40.5,95,90,65,30.17,30.04,0,0,4,0.00
2013-10-17,74.3,51.1,38.5,63.0,46.0,36.9,95,84,51,30.12,30.02,10,0,10,0.00
2013-10-18,69.3,48.0,37.8,56.7,44.1,35.3,93,87,64,30.11,30.01,4,0,4,0.00
2013-10-19,67.3,46.2,35.8,61.1,42.8,34.2,94,88,67,30.20,30.08,2,0,5,0.00
2013-10-20,72.3,52.8,36.7,46.1,40.1,34.8,94,67,32,30.09,29.94,6,0,9,0.00
2013-10-21,52.2,45.7,37.6,47.9,42.1,35.7,93,87,73,30.16,30.02,0,0,0,0.00
2013-10-22,74.1,48.5,31.6,57.5,40.5,30.1,95,77,44,30.15,30.00,6,0,6,0.00
2013-10-23,75.0,49.4,33.1,45.8,36.7,29.6,88,66,28,30.23,30.05,5,0,5,0.00
2013-10-24,60.6,45.4,35.2,38.7,33.8,25.9,89,66,39,30.43,30.13,4,0,4,0.00
2013-10-25,69.4,45.7,31.8,38.9,30.4,25.0,81,59,28,30.51,30.26,2,0,2,0.00
2013-10-26,70.2,53.7,43.3,52.6,43.7,31.6,84,69,53,30.26,30.15,4,0,4,0.00
2013-10-27,79.3,57.2,45.5,55.3,45.2,38.4,86,68,31,30.16,30.03,0,0,0,0.00
2013-10-28,70.0,57.7,46.6,54.7,49.9,41.1,90,76,54,30.21,30.08,3,0,3,0.00
2013-10-29,68.4,63.9,54.3,62.3,59.0,49.5,92,84,80,30.18,30.04,10,1,10,0.00
2013-10-30,67.5,66.0,64.0,62.6,61.6,60.0,93,86,83,30.09,30.00,4,0,6,0.00
2013-10-31,71.4,53.8,46.0,68.4,50.9,44.4,99,90,70,29.85,29.58,9,0,12,0.00
2013-11-1,76.6,54.6,40.3,72.1,52.0,38.7,95,91,75,30.07,29.83,17,0,17,0.00
2013-11-2,62.4,45.1,34.0,54.7,40.5,30.7,95,85,56,30.27,30.06,6,0,6,0.00
2013-11-3,65.5,46.6,30.0,44.0,35.6,27.5,92,69,38,30.26,30.05,9,0,9,0.00
2013-11-4,56.3,52.7,49.8,50.1,44.5,39.2,91,74,65,30.20,30.05,11,1,12,0.00
2013-11-5,60.4,56.7,52.5,58.7,54.6,49.9,94,93,91,30.19,30.01,9,1,11,0.00
2013-11-6,43.0,36.9,30.0,41.1,35.1,28.3,94,93,92,30.39,30.27,8,0,8,0.00
2013-11-7,70.3,42.6,27.3,65.6,39.9,25.8,95,90,81,30.48,30.37,0,0,0,0.00
2013-11-8,66.7,48.2,30.4,49.1,36.1,28.6,94,68,32,30.40,30.13,15,1,15,0.00
2013-11-9,72.5,54.1,43.9,45.9,40.1,36.1,74,60,36,30.31,30.14,6,0,6,0.00
2013-11-10,79.3,55.2,41.7,49.7,41.4,35.4,84,63,32,30.40,30.30,1,0,11,0.00
2013-11-11,72.1,54.2,40.3,50.4,44.0,34.6,83,70,46,30.42,30.22,11,1,12,0.00
2013-11-12,46.6,34.8,21.4,37.8,20.6,11.5,83,58,32,30.73,30.42,9,2,12,0.00
2013-11-13,55.9,33.5,16.5,22.5,16.9,11.1,81,55,26,30.70,30.35,8,0,11,0.00
2013-11-14,55.0,42.3,29.5,32.9,22.6,15.2,71,47,30,30.35,30.07,11,1,12,0.00
2013-11-15,58.8,48.7,40.1,52.3,42.5,30.2,91,80,54,30.08,29.91,8,1,9,0.00
2013-11-16,70.9,62.0,52.9,62.3,56.1,49.7,90,81,65,29.92,29.70,15,4,19,0.00
2013-11-17,82.0,66.2,44.8,63.2,46.6,22.7,84,54,24,30.13,29.64,13,2,16,0.00
2013-11-18,70.0,47.4,31.3,40.9,26.7,21.2,76,48,19,30.30,30.12,6,0,6,0.00
2013-11-19,66.0,50.4,39.6,29.8,23.6,12.6,54,37,22,30.28,30.09,7,0,11,0.00
2013-11-20,59.9,53.2,45.0,37.4,24.7,11.2,50,34,20,30.10,29.96,12,1,12,0.00
2013-11-21,55.8,50.1,46.0,51.2,45.8,36.3,92,86,49,30.11,30.02,7,0,11,0.00
2013-11-22,33.1,31.7,30.6,31.0,29.7,28.5,93,92,91,30.52,30.41,8,1,10,0.00
2013-11-23,37.8,31.4,22.6,28.7,23.3,11.7,92,73,47,30.65,30.51,10,2,10,0.00
2013-11-24,31.8,25.9,18.5,19.4,14.7,10.8,74,63,52,30.67,30.35,6,0,7,0.00
2013-11-25,37.2,32.6,28.0,28.0,23.1,12.8,80,68,46,30.35,30.19,6,0,6,0.00
2013-11-26,50.9,35.4,25.9,32.0,25.3,16.7,82,68,43,30.35,30.14,12,2,14,0.00
2013-11-27,44.6,25.8,14.4,17.7,11.1,6.0,73,56,32,30.44,30.32,10,1,10,0.00
2013-11-28,55.8,34.8,16.3,28.8,18.6,7.7,72,53,35,30.47,30.30,8,0,8,0.00
2013-11-29,62.6,37.2,19.2,33.7,20.7,13.7,82,56,27,30.53,30.34,6,0,8,0.00
2013-11-30,58.3,45.5,29.8,42.3,34.5,18.3,85,66,53,30.36,30.16,12,1,12,0.00
2013-12-1,56.1,49.7,40.5,48.6,44.1,36.5,86,81,75,30.18,29.92,2,0,4,0.00
2013-12-2,70.5,49.2,36.7,52.0,41.4,32.5,91,76,47,29.93,29.72,6,0,7,0.00
2013-12-3,75.9,49.9,32.7,59.0,41.8,29.6,91,77,37,29.74,29.59,9,0,10,0.00
2013-12-4,65.7,47.5,32.7,49.1,39.8,27.5,91,76,50,30.00,29.60,7,1,9,0.00
2013-12-5,32.5,24.7,19.9,27.5,19.5,16.6,87,81,67,30.26,30.00,9,2,9,0.00
2013-12-6,21.4,18.4,16.0,18.3,15.2,12.5,88,87,87,30.53,30.22,10,2,12,0.00
2013-12-7,28.9,16.5,5.9,26.1,13.4,2.0,89,87,84,30.61,30.28,7,0,9,0.00
2013-12-8,21.6,21.2,19.9,18.8,18.4,17.1,89,89,89,30.29,30.15,0,0,0,0.00
2013-12-9,31.1,25.5,19.9,29.1,23.2,17.4,92,91,90,30.34,30.19,9,1,9,0.00
2013-12-10,33.8,22.9,13.6,32.1,20.5,10.8,94,91,88,30.45,30.29,6,0,6,0.00
2013-12-11,36.5,25.2,15.3,34.6,22.9,12.5,93,91,89,30.62,30.28,8,0,10,0.00
2013-12-12,41.7,24.6,9.1,35.7,21.0,6.0,92,86,72,30.59,30.29,5,0,7,0.00
2013-12-13,34.2,32.6,28.2,29.7,28.3,25.4,89,84,80,30.29,30.16,7,0,7,0.00
2013-12-14,34.9,32.0,21.0,33.0,30.1,19.0,93,93,92,30.26,29.87,0,0,0,0.00
2013-12-15,51.1,39.7,15.4,44.6,33.4,12.7,94,79,63,30.29,30.16,9,1,9,0.00
2013-12-16,65.5,45.6,34.0,38.2,31.1,24.1,76,59,32,30.19,30.10,7,0,8,0.00
2013-12-17,66.6,41.1,26.1,43.4,27.1,18.0,85,62,29,30.33,30.17,9,0,11,0.00
2013-12-18,63.3,44.5,22.8,37.8,30.5,17.4,85,61,37,30.31,30.01,8,1,13,0.00
2013-12-19,60.4,55.3,49.3,54.0,47.2,37.2,80,75,59,30.01,29.79,14,2,21,0.00
2013-12-20,63.1,45.7,32.0,56.8,41.0,28.7,91,84,70,29.95,29.78,13,1,13,0.00
2013-12-21,34.3,32.5,31.3,32.2,30.4,29.0,92,92,91,29.84,29.73,2,0,4,0.00
2013-12-22,30.6,27.4,25.5,28.8,25.6,23.3,93,93,91,30.36,30.13,0,0,2,0.00
2013-12-23,32.0,24.2,14.7,27.6,21.1,11.9,91,88,80,30.57,30.36,4,0,5,0.00
2013-12-24,45.7,27.6,12.0,41.5,24.0,9.1,90,86,74,30.56,30.27,9,0,9,0.00
2013-12-25,51.8,32.0,19.0,41.8,26.5,14.9,91,81,59,30.42,30.28,4,0,7,0.00
2013-12-26,55.6,31.5,15.3,38.8,21.5,11.5,87,69,40,30.42,30.33,9,0,9,0.00
2013-12-27,61.7,35.3,19.2,40.1,23.2,14.8,85,65,34,30.45,30.34,7,0,7,0.00
2013-12-28,59.0,36.3,20.7,43.3,25.1,15.6,84,66,38,30.34,29.98,8,0,8,0.00
2013-12-29,39.4,30.0,19.6,35.2,23.9,13.4,85,78,72,30.28,29.98,12,1,12,0.00
2013-12-30,44.4,24.7,12.0,25.7,15.9,7.0,83,70,46,30.39,30.22,4,0,6,0.00
2013-12-31,60.6,33.9,14.0,36.7,20.5,9.5,83,62,32,30.40,30.19,13,0,13,0.00
2014-1-1,58.8,42.3,24.6,34.3,26.3,17.5,74,54,35,30.20,29.91,11,1,11,0.00
2014-1-2,32.9,19.2,9.5,18.7,10.0,1.2,80,68,47,30.47,30.16,9,1,10,0.00